EW3638 Weather Reports


time (UTC)temp
C
wind
direction
speed
KPH
gust
KPH
rain 1hr
cm
rain 24hr
cm
rain mn
cm
humidity
%
barometer
mb
20260505213937 13 325 4.8 8.0 0.00 0.00 0.00 95 1017.7
20260505212940 13 266 4.8 6.4 0.00 0.00 0.00 95 1017.7
20260505211924 13 266 4.8 6.4 0.00 0.00 0.00 95 1017.7
20260505210933 13 248 4.8 6.4 0.00 0.00 0.00 95 1017.6
20260505205945 12 248 4.8 6.4 0.00 0.00 0.00 95 1017.5
20260505204928 12 248 4.8 6.4 0.00 0.00 0.00 95 1017.6
20260505203922 12 170 6.4 8.0 0.00 0.00 0.00 96 1017.7
20260505202914 12 170 3.2 4.8 0.00 0.00 0.00 96 1017.8
20260505201920 12 170 3.2 4.8 0.00 0.00 0.00 96 1017.8
20260505200946 12 192 3.2 8.0 0.00 0.00 0.00 96 1017.9
20260505195959 12 223 4.8 8.0 0.00 0.00 0.00 96 1017.9
20260505194920 12 159 6.4 9.7 0.00 0.00 0.00 96 1017.7
20260505193913 12 180 6.4 9.7 0.00 0.00 0.00 96 1017.6
20260505192923 12 184 8.0 11.3 0.00 0.00 0.00 96 1017.5
20260505191924 12 194 9.7 12.9 0.00 0.00 0.00 96 1017.5
20260505190948 12 195 9.7 12.9 0.00 0.00 0.00 96 1017.4
20260505185917 12 194 8.0 11.3 0.00 0.00 0.00 96 1017.5
20260505184927 12 197 8.0 12.9 0.00 0.00 0.00 96 1017.4
20260505183947 12 175 9.7 12.9 0.00 0.00 0.00 96 1017.5
20260505182917 12 171 9.7 16.1 0.00 0.00 0.00 96 1017.3
20260505181927 12 200 9.7 12.9 0.00 0.00 0.00 96 1017.2
20260505180944 12 203 9.7 14.5 0.00 0.00 0.00 96 1017.2
20260505175914 12 204 9.7 12.9 0.00 0.00 0.00 96 1017.2
20260505174946 12 161 6.4 9.7 0.00 0.00 0.00 97 1017.2
20260505173924 12 192 4.8 9.7 0.00 0.00 0.00 97 1017.1
20260505172915 12 203 3.2 8.0 0.00 0.00 0.00 96 1017.1
20260505171926 12 190 6.4 9.7 0.00 0.00 0.00 96 1017.0
20260505170926 12 197 6.4 11.3 0.00 0.00 0.00 96 1016.9
20260505165932 12 201 4.8 9.7 0.00 0.00 0.00 96 1016.9
20260505164924 12 209 6.4 9.7 0.00 0.00 0.00 96 1016.8
20260505163914 12 181 4.8 9.7 0.00 0.00 0.00 96 1016.8
20260505162925 12 166 6.4 9.7 0.00 0.00 0.00 96 1016.7
20260505161935 12 200 8.0 12.9 0.00 0.00 0.00 96 1016.8
20260505160915 12 171 9.7 14.5 0.00 0.00 0.00 96 1016.8
20260505152926 12 159 4.8 9.7 0.00 0.00 0.00 96 1016.7
20260505151915 12 190 6.4 11.3 0.00 0.00 0.00 95 1016.7
20260505150922 12 205 8.0 11.3 0.00 0.00 0.00 95 1016.6
20260505124927 12 194 4.8 9.7 0.00 0.00 0.00 96 1015.8
20260505123913 12 180 3.2 6.4 0.00 0.00 0.00 96 1015.8
20260505122921 12 190 3.2 6.4 0.00 0.00 0.00 96 1015.7
20260505121935 12 169 3.2 6.4 0.00 0.00 0.00 96 1015.7
20260505120945 12 181 4.8 8.0 0.00 0.00 0.00 96 1015.6
20260505115926 12 205 4.8 11.3 0.00 0.00 0.00 96 1015.6
20260505114917 12 167 8.0 11.3 0.00 0.00 0.00 96 1015.5
20260505113919 12 178 8.0 12.9 0.00 0.00 0.00 96 1015.5
20260505112946 12 180 8.0 11.3 0.00 0.00 0.00 96 1015.6
20260505111927 12 180 6.4 11.3 0.00 0.00 0.00 96 1015.5
20260505110938 12 199 6.4 9.7 0.00 0.00 0.00 96 1015.6
20260505101927 12 211 9.7 12.9 0.00 0.00 0.00 95 1015.4
20260505100916 12 198 8.0 9.7 0.00 0.00 0.00 95 1015.4
20260505095937 12 201 8.0 12.9 0.00 0.00 0.00 95 1015.5
20260505094915 12 182 8.0 12.9 0.00 0.00 0.00 94 1015.4
20260505093925 12 194 9.7 20.9 0.00 0.00 0.00 94 1015.3
20260505092947 12 195 14.5 17.7 0.00 0.00 0.00 93 1015.2
20260505091926 12 176 4.8 14.5 0.00 0.00 0.00 93 1015.1
20260505090913 12 216 8.0 16.1 0.00 0.00 0.00 93 1015.0
20260505085924 12 169 8.0 14.5 0.00 0.00 0.00 93 1015.0
20260505084927 12 181 11.3 22.5 0.00 0.00 0.00 93 1015.0
20260505083913 12 199 11.3 19.3 0.00 0.00 0.00 94 1015.1
20260505082925 12 173 11.3 14.5 0.00 0.00 0.00 94 1015.1
20260505081936 12 177 9.7 19.3 0.00 0.00 0.00 94 1015.0
20260505080919 12 221 12.9 20.9 0.00 0.00 0.00 94 1015.1
20260505075923 12 177 8.0 19.3 0.00 0.00 0.00 95 1015.2
20260505074927 12 192 8.0 19.3 0.00 0.00 0.00 95 1015.3
20260505073945 12 168 8.0 14.5 0.00 0.00 0.00 95 1015.2
20260505072937 12 198 11.3 22.5 0.00 0.00 0.00 96 1015.2
20260505071921 12 182 12.9 20.9 0.00 0.00 0.00 96 1015.2
20260505070922 12 182 14.5 17.7 0.00 0.00 0.00 95 1015.2
20260505065928 12 211 11.3 16.1 0.00 0.00 0.00 95 1015.2
20260505064925 12 186 14.5 16.1 0.00 0.00 0.00 95 1015.4
20260505063920 12 212 12.9 16.1 0.00 0.00 0.00 95 1015.4
20260505062935 12 182 12.9 17.7 0.00 0.00 0.00 95 1015.3
20260505061922 12 161 12.9 17.7 0.00 0.00 0.00 95 1015.2
20260505060926 12 202 11.3 16.1 0.00 0.00 0.00 94 1015.3
20260505055913 12 167 12.9 16.1 0.00 0.00 0.00 95 1015.3
20260505054946 12 181 11.3 17.7 0.00 0.00 0.00 94 1015.3
20260505053938 12 206 12.9 16.1 0.00 0.00 0.00 94 1015.5
20260505052927 12 189 12.9 17.7 0.00 0.00 0.00 94 1015.4
20260505051925 12 190 11.3 16.1 0.00 0.00 0.00 94 1015.4
20260505050926 12 204 14.5 17.7 0.00 0.00 0.00 94 1015.3
20260505040916 12 134 16.1 24.1 0.00 0.00 0.00 93 1014.7
20260505035930 12 187 16.1 20.9 0.00 0.00 0.00 93 1014.7
20260505034919 12 196 16.1 24.1 0.00 0.00 0.00 93 1014.6
20260505033924 12 196 14.5 19.3 0.00 0.00 0.00 92 1014.6
20260505032937 12 174 16.1 17.7 0.00 0.00 0.00 92 1014.6
20260505031921 12 157 14.5 22.5 0.00 0.00 0.00 92 1014.5
20260505030944 12 172 16.1 22.5 0.00 0.00 0.00 91 1014.3
20260505025935 12 161 14.5 22.5 0.00 0.00 0.00 91 1014.2
20260505024919 12 182 16.1 22.5 0.00 0.00 0.00 91 1014.2
20260505023943 12 128 14.5 22.5 0.00 0.00 0.00 91 1014.2
20260505022928 12 191 14.5 19.3 0.00 0.00 0.00 91 1014.3
20260505021926 12 150 14.5 24.1 0.00 0.00 0.00 92 1014.1
20260505020925 12 194 14.5 17.7 0.00 0.00 0.00 92 1014.0
20260505015915 12 194 16.1 19.3 0.00 0.00 0.00 91 1014.1
20260505014927 12 200 14.5 20.9 0.00 0.00 0.00 91 1014.1
20260505013942 13 206 14.5 20.9 0.00 0.00 0.00 91 1014.1
20260505012917 13 181 14.5 20.9 0.00 0.00 0.00 91 1014.3
20260505011919 13 180 16.1 22.5 0.00 0.00 0.00 91 1014.5
20260505010921 13 192 16.1 22.5 0.00 0.00 0.00 91 1014.6
20260505005931 13 180 16.1 22.5 0.00 0.00 0.00 91 1014.7
20260505004925 13 176 16.1 24.1 0.00 0.00 0.00 91 1014.7
20260505003921 13 191 16.1 22.5 0.00 0.00 0.00 91 1014.9
20260505002923 13 200 16.1 22.5 0.00 0.00 0.00 91 1014.8
20260505001934 13 166 16.1 22.5 0.00 0.00 0.00 91 1014.8
20260505000924 13 182 16.1 20.9 0.00 0.00 0.00 91 1014.7
20260504235923 13 172 16.1 20.9 0.00 0.00 0.00 91 1014.8
20260504234953 13 181 16.1 22.5 0.00 0.00 0.00 92 1014.8
20260504233922 13 185 16.1 24.1 0.00 0.00 0.00 91 1014.8
20260504232925 13 174 19.3 24.1 0.00 0.00 0.00 91 1014.8
20260504231915 13 189 20.9 25.7 0.00 0.00 0.00 92 1014.7
20260504230924 13 153 17.7 25.7 0.00 0.00 0.00 92 1014.8
20260504225927 13 195 17.7 22.5 0.00 0.00 0.00 92 1014.9
20260504224919 13 189 17.7 24.1 0.00 0.00 0.00 93 1015.0
20260504223931 13 180 17.7 22.5 0.00 0.00 0.00 94 1015.0
20260504222921 13 159 16.1 25.7 0.00 0.00 0.00 95 1015.2
20260504221923 13 182 16.1 22.5 0.00 0.00 0.00 94 1015.3
20260504220914 13 183 17.7 29.0 0.00 0.00 0.00 94 1015.4
20260504215924 13 165 17.7 27.4 0.00 0.00 0.00 95 1015.5
20260504214916 13 194 17.7 27.4 0.00 0.00 0.00 96 1015.5